Welcome to the New NWS' Forecast!
Most changes are behind the scenes, but click here for differences you might notice.

Regional Weather Roundup (RWR)

Issued by Gray - Portland, ME (GYX)

                            
944 
ASUS41 KGYX 161310
RWRGYX
WEATHER ROUNDUP FOR MAINE AND NEW HAMPSHIRE
NATIONAL WEATHER SERVICE GRAY ME
900 AM EDT THU AUG 16 2018

MEZ002-005-006-010-012-015-018-020-021-024-026-027-029-161400-
MAINE
  
CITY           SKY/WX    TMP DP  RH WIND       PRES   REMARKS
PORTLAND       FAIR      77  68  73 CALM      29.96S                  
SANFORD        FAIR      78  67  68 W8        29.97S                  
BAR HARBOR     FAIR      73  69  87 CALM      29.93S                  
WISCASSET      CLOUDY    73  68  84 CALM      29.97R                  
ROCKLAND       PTSUNNY   71  68  90 NW3       29.94R                  
FRYEBURG       FAIR      75  69  81 W3        29.98S                  
LEWISTONAUBURN PTSUNNY   72  66  81 VRB3      29.96F                  
AUGUSTA        CLOUDY    72  65  78 W6        29.97R                  
WATERVILLE     FAIR      74  65  73 NW7       29.93S                  
BANGOR         FAIR      73  67  81 NW7       29.94R                  
GREENVILLE       N/A     63  55  75 NW9G22    29.97R                  
MILLINOCKET    PTSUNNY   69  55  60 NW9       29.96S                  
HOULTON        FAIR      64  58  80 NW6       29.92S                  
PRESQUE ISLE   FAIR      62  55  77 NW6       29.95S                  
FRENCHVILLE    PTSUNNY   62  52  69 N7        29.95R                  
CARIBOU        FAIR      64  55  72 W6        29.93S                  
$$

NHZ002-005-008-009-011-012-014-161400-
NEW HAMPSHIRE
  
CITY           SKY/WX    TMP DP  RH WIND       PRES   REMARKS
PORTSMOUTH     MOSUNNY   77  68  72 W8        29.96R                  
ROCHESTER      FAIR      78  69  73 NW3       29.98R                  
MANCHESTER     NOT AVBL                                               
CONCORD        FAIR      75  69  81 CALM      29.99R                  
LACONIA        FAIR      75  67  76 SW7       30.00                   
PLYMOUTH       PTSUNNY   74  65  75 W6        29.99S                  
BERLIN         PTSUNNY   71  66  84 CALM      30.01R                  
WHITEFIELD     PTSUNNY   71  66  84 W7        30.02S                  
JAFFREY        NOT AVBL                                               
LEBANON        CLOUDY    72  66  81 CALM      30.01S                  
MT WASHINGTON  FOG       50  50 100 NW49G55     N/A  VSB 0            
$$

VTZ005-007-008-161400-
VERMONT
  
CITY           SKY/WX    TMP DP  RH WIND       PRES   REMARKS
ST JOHNSBURY     N/A     68  67  96 MISG      30.00R                  
MONTPELIER     FAIR      68  65  90 VRB5      30.08R                  
BURLINGTON     FAIR      72  62  71 N9        30.03R                  
$$

MAZ007-012-024-CTZ003-RIZ002-NYZ038-NYZ072-161400-
SOUTHERN NEW ENGLAND AND NY
  
CITY           SKY/WX    TMP DP  RH WIND       PRES   REMARKS
BOSTON         FAIR      82  69  64 W12       29.98S                  
WORCESTER      FAIR      74  68  81 W9        30.04R                  
NANTUCKET      FAIR      81  71  71 W8        29.99S                  
PROVIDENCE     FAIR      82  70  66 VRB6      30.01R                  
HARTFORD       FAIR      80  69  69 W7        30.03R                  
ALBANY         FAIR      79  68  69 W9        30.04S                  
NEW YORK CITY  PTSUNNY   81  66  60 NW9       30.05R                  
$$

ANZ081-ANZ082-ANZ150-NHZ014-MEZ023>029-161400-
COASTAL MARINE OBSERVATIONS
  
STATION/POSITION TIME  TEMP    WIND        PRES    WAVE
                       AIR SEA DIR/SP/G            HT/PER
                 (UTC) (F)     (DEG/KT/KT) (MB)    (FT/S)
MOUNT DESERT ROC 1200   63     280/  9/ 11 1013.5R
MATINICUS ROCK   1200   65     290/  4/  4 1013.2R
ISLE OF SHOALS   1200   72     260/  8/  9 1014.1R
JEFFREYS LEDGE   1236      69                N/A     2/ 7
$$

.............KEY..............
   WCI - WIND CHILL
   TC  - TEMPERATURE IN CELSIUS
   VSB - VISIBILITY IN MILES
   HX  - HEAT INDEX
   FAIR- INDICATES FEW OR NO CLOUDS BELOW 12,000 FT, WITH NO 
         SIGNIFICANT WEATHER AND/OR OBSTRUCTIONS TO VISIBILITY.